Temp
85 84 84 85 84 85 85 85 85 85 85 85 85 85 86 86 85 84 83 82 81 81 81 81 81 81 81 82 82 83 83 83 83 83 83 83 84 84 84 85 85 84 86 86 86 85 86 86 86 86 86 85 86 85 85 85 85 86 86 85 85 85 86
84 84 85 85 85 85 85 85 86 86 85 85 85 84 86 86 85 84 83 82 82 81 81 81 81 81 82 82 83 82 82 83 83 83 83 83 83 84 85 84 84 84 84 86 86 86 86 86 86 85 85 86 86 85 86 86 85 86 87 85 86 85 86
81 85 85 85 85 86 85 87 86 86 86 86 86 86 85 84 85 84 83 83 82 82 82 82 81 82 82 82 82 82 83 83 83 83 83 84 84 86 85 85 85 86 86 86 85 86 87 86 85 85 86 86 87 86 85 86 85 86 86 85 86 87 85
74 77 83 86 86 86 86 86 86 87 88 88 87 87 86 84 86 85 85 84 83 82 81 83 83 83 83 82 82 82 82 83 83 85 85 86 85 86 84 84 84 86 85 86 87 87 88 86 86 85 84 85 86 87 87 86 87 86 86 85 86 86 85
73 76 78 83 86 86 86 86 87 87 88 89 88 87 87 87 87 87 86 87 87 84 85 85 86 85 84 84 84 84 83 84 84 85 85 86 85 85 84 86 86 86 86 87 86 85 84 85 86 85 85 85 86 86 86 86 87 86 85 85 85 86 87
72 73 75 79 85 86 87 87 88 89 89 89 88 87 88 89 89 88 88 87 87 88 86 85 85 84 83 85 85 85 84 84 83 83 84 85 84 85 85 85 86 86 87 86 87 87 86 86 86 86 86 87 87 88 88 87 87 87 86 85 85 87 88
70 72 74 79 83 87 87 87 89 89 90 90 90 89 88 89 89 89 89 88 88 86 87 87 87 86 84 85 84 84 83 84 84 84 85 86 85 85 85 85 85 87 87 87 86 87 87 86 85 86 86 87 87 88 86 85 86 87 86 85 84 85 85
71 71 73 78 85 87 88 88 88 90 90 89 90 89 88 89 88 88 88 89 89 89 88 88 87 85 84 85 85 85 85 85 86 85 85 86 86 85 85 86 85 85 85 86 86 86 87 86 87 87 86 87 86 86 87 85 85 87 87 85 84 85 88
72 72 72 75 77 84 89 87 88 89 88 87 88 88 89 89 89 89 89 89 89 89 88 90 89 88 85 85 84 84 86 86 86 85 85 86 86 87 88 87 87 86 85 87 88 87 87 87 88 86 85 86 85 85 85 85 86 86 86 85 85 85 87
70 70 71 73 75 76 77 84 88 87 86 86 86 86 87 88 88 88 89 89 90 89 90 90 90 89 86 85 85 86 86 85 85 87 86 86 87 87 88 89 88 87 87 87 89 88 86 87 87 86 84 85 84 85 85 85 86 86 86 85 85 85 84
69 69 70 71 72 72 74 74 74 77 84 85 84 87 87 87 87 88 88 89 89 89 91 90 90 89 88 87 87 87 85 86 87 86 86 87 88 88 89 89 90 88 87 88 88 89 88 86 86 85 84 85 85 85 85 85 85 85 87 87 87 86 86
67 68 67 69 69 71 70 70 72 73 74 79 86 88 85 86 87 89 88 88 90 90 89 90 91 90 88 88 87 86 86 86 87 87 87 87 88 89 89 89 89 89 88 88 87 87 88 87 86 86 84 85 86 86 85 85 85 85 86 88 88 87 87
65 65 66 66 67 69 69 69 70 71 73 78 80 84 88 88 88 89 87 87 89 90 90 89 89 87 88 88 88 86 86 87 86 86 87 87 88 89 89 89 90 90 89 88 88 88 88 89 87 86 86 85 86 87 85 85 86 85 85 86 86 86 86
64 65 65 65 66 66 66 67 68 69 71 74 77 79 81 86 89 88 87 87 88 90 90 89 88 87 86 86 86 85 86 87 88 87 86 87 85 86 88 89 89 88 88 88 87 88 89 89 88 88 88 87 87 86 86 85 86 85 85 85 86 86 86
63 61 61 62 62 63 63 65 66 67 70 71 74 75 77 79 80 82 86 88 88 90 89 88 87 86 87 86 84 84 85 86 87 87 86 85 84 84 85 87 87 87 87 87 88 89 90 90 90 88 87 87 86 86 87 87 87 87 86 85 85 86 87
63 61 59 60 60 61 63 63 65 65 67 69 71 72 75 75 77 80 81 85 88 87 89 88 87 85 86 86 85 85 85 84 84 85 85 84 82 82 83 86 86 88 87 86 87 87 86 87 88 89 88 87 86 86 87 86 87 81 73 76 86 86 88
62 62 61 59 60 61 61 62 63 64 65 66 69 71 72 74 75 78 81 82 85 87 88 89 86 87 86 85 86 85 85 84 83 83 82 83 83 83 82 83 85 85 84 85 85 85 84 85 86 88 88 88 88 87 87 88 88 73 68 68 71 83 86
61 61 61 61 60 60 60 61 62 62 63 65 67 70 71 71 74 77 79 81 82 83 87 89 88 87 85 86 85 85 84 84 83 82 82 82 82 82 82 83 84 83 83 84 85 83 86 85 85 85 87 88 88 88 88 88 77 69 67 67 66 71 84
62 63 62 61 61 60 60 62 62 62 63 64 65 66 68 71 73 73 75 77 79 82 83 85 89 87 85 86 86 84 84 83 83 82 82 82 82 82 82 82 82 83 83 84 85 85 83 83 85 84 85 87 85 87 88 89 75 67 66 66 65 65 74
64 64 64 63 63 62 62 62 63 64 65 65 65 66 67 69 70 72 75 76 78 78 79 79 81 85 85 85 84 84 84 83 83 83 82 83 82 82 82 82 81 84 86 86 84 83 83 85 84 84 83 84 85 84 87 88 75 66 65 64 64 64 68
64 64 64 63 63 63 63 63 63 64 65 66 66 66 67 68 69 70 72 75 75 77 77 78 79 79 82 84 84 84 83 83 83 82 82 83 82 82 82 82 82 83 85 86 85 83 82 84 84 83 84 85 86 85 86 89 72 65 63 62 62 63 67
64 65 65 65 64 63 64 64 63 64 65 67 68 67 68 68 68 69 70 73 73 74 76 76 76 76 78 79 80 80 79 78 79 81 82 82 82 81 81 82 81 81 83 84 86 86 86 84 85 85 84 85 85 86 85 89 70 64 62 61 61 62 74
65 66 66 67 67 66 67 67 66 67 67 67 67 67 67 68 69 68 69 70 71 72 73 73 73 73 74 74 77 78 78 78 77 77 78 79 78 79 80 82 81 82 83 83 84 85 85 85 86 85 86 85 84 84 85 87 75 63 61 60 60 64 78
66 67 67 67 68 69 68 68 68 69 69 68 68 68 68 69 69 69 69 70 71 71 71 71 70 71 73 74 76 77 78 78 78 77 77 78 78 78 79 79 82 82 82 81 83 84 86 86 86 86 86 87 86 87 85 87 78 63 60 59 58 66 79
66 67 67 68 68 67 68 68 67 68 69 69 67 68 69 69 69 69 69 69 70 70 69 68 68 69 71 72 74 76 77 78 78 78 78 77 77 77 77 77 79 82 82 83 83 84 84 85 86 87 86 89 88 79 83 87 81 63 60 58 57 66 79
64 65 66 68 69 69 68 68 68 68 69 69 67 70 69 70 70 68 69 69 69 69 69 68 67 68 69 71 73 75 77 77 77 78 79 79 78 77 75 76 76 77 77 79 83 83 83 85 86 86 87 88 88 89 87 87 87 79 59 59 56 59 77
66 66 66 68 68 66 68 68 68 68 69 69 69 71 71 70 69 68 68 68 68 66 69 69 69 68 69 69 71 74 75 75 76 76 77 78 76 76 76 75 75 75 75 75 76 76 80 84 86 87 86 88 87 88 89 89 87 83 60 57 56 57 64
65 66 68 67 66 66 67 68 67 68 69 69 70 71 71 70 67 66 66 66 66 67 70 70 69 69 70 69 70 72 75 75 75 76 77 77 76 74 74 76 76 75 75 76 76 76 79 83 84 85 86 87 88 87 87 85 78 89 67 58 56 55 57
61 62 63 64 65 67 67 66 66 67 68 69 70 70 71 70 66 65 66 65 66 68 70 70 69 69 70 70 70 72 74 75 74 75 76 76 76 76 75 75 76 76 76 75 75 75 76 76 80 83 84 85 87 88 87 86 84 70 80 61 55 55 54
61 62 63 65 66 66 66 65 66 66 68 68 68 68 69 68 66 66 65 64 66 68 69 69 69 69 69 69 70 71 72 74 75 74 74 75 76 75 75 74 74 74 74 74 75 77 77 78 79 81 83 84 84 87 88 88 87 74 67 72 56 56 54
60 60 61 62 63 64 65 65 64 65 66 68 67 67 67 68 66 66 65 66 67 66 67 67 68 69 69 69 70 70 71 72 73 73 74 75 75 75 74 74 75 74 75 74 75 76 78 78 81 81 83 83 83 85 87 89 88 89 74 63 62 55 55
59 60 62 62 62 63 63 64 65 64 64 65 67 67 67 67 67 65 66 68 68 68 67 67 67 67 68 69 69 69 70 70 71 72 73 74 75 74 74 73 73 72 74 76 77 78 78 78 80 82 83 83 85 86 87 87 88 87 87 73 68 63 56
57 58 59 59 60 61 61 62 62 62 63 62 65 67 67 67 67 67 68 68 69 69 67 66 66 66 67 67 68 69 69 68 70 72 74 75 74 74 75 74 74 73 73 74 77 79 80 80 81 82 83 84 86 86 86 87 88 88 89 88 83 81 74
56 57 58 59 59 60 60 60 60 60 61 61 63 65 66 67 67 67 67 68 69 69 67 65 65 65 66 67 68 68 69 69 69 70 72 74 75 75 75 75 75 74 74 75 78 79 81 82 82 83 85 86 87 86 86 86 87 88 88 89 87 85 84
56 56 57 57 58 59 58 59 59 60 60 61 63 64 65 65 66 66 66 66 67 67 66 64 64 65 65 65 67 67 69 70 70 71 72 74 75 76 76 75 76 75 76 78 79 82 84 85 85 86 88 88 86 86 85 86 86 88 75 87 73 83 88
55 56 56 58 58 59 59 59 59 59 60 61 63 64 65 66 66 66 66 65 65 66 65 64 64 64 64 65 66 67 68 70 71 71 71 72 73 75 76 72 63 67 75 77 71 65 63 64 79 84 86 86 86 87 85 86 89 74 65 60 60 59 63
54 55 55 57 57 57 57 58 59 59 59 61 62 63 64 65 67 66 66 66 65 64 63 63 63 63 65 66 66 66 67 68 70 70 70 71 73 74 74 75 74 56 55 60 65 62 56 53 55 58 63 75 84 83 69 67 65 64 59 55 55 55 55
56 56 56 57 57 57 57 57 58 58 59 61 62 63 64 65 67 67 67 66 64 64 63 62 61 61 63 65 65 65 66 68 69 70 70 71 72 72 72 73 73 75 61 54 54 56 53 53 52 51 52 53 61 71 83 69 57 57 55 52 53 53 53
MSLP
1010.15 1010.43 1010.39 1010.39 1010.71 1010.95 1011.19 1011.27 1011.43 1011.83 1012.15 1012.47 1012.79 1013.07 1013.39 1013.67 1013.99 1014.31 1014.79 1015.19 1015.67 1016.11 1016.31 1016.55 1016.79 1017.03 1017.31 1017.47 1017.63 1017.79 1017.95 1018.23 1018.43 1018.71 1018.95 1019.07 1019.15 1019.39 1019.71 1019.75 1019.99 1020.15 1020.19 1020.47 1020.55 1020.63 1020.55 1020.55 1020.75 1020.87 1021.03 1021.19 1021.39 1021.51 1021.67 1021.75 1021.87 1021.91 1021.99 1022.07 1022.15 1022.27 1022.31
1010.27 1010.23 1010.19 1010.19 1010.35 1010.47 1010.55 1010.75 1011.03 1011.39 1011.75 1012.03 1012.43 1012.71 1012.95 1013.27 1013.59 1014.03 1014.43 1014.75 1015.15 1015.55 1015.87 1016.19 1016.55 1016.75 1016.95 1017.15 1017.27 1017.55 1017.87 1018.03 1018.23 1018.39 1018.59 1018.87 1018.95 1019.11 1019.19 1019.47 1019.71 1019.95 1020.07 1020.11 1020.23 1020.27 1020.39 1020.51 1020.63 1020.83 1021.03 1021.11 1021.23 1021.31 1021.47 1021.59 1021.71 1021.79 1021.83 1021.99 1022.15 1022.23 1022.23
1010.91 1010.03 1009.95 1009.95 1010.07 1010.19 1010.31 1010.39 1010.63 1010.83 1011.15 1011.55 1011.95 1012.31 1012.63 1012.87 1013.03 1013.51 1013.99 1014.47 1014.99 1015.23 1015.43 1015.75 1016.03 1016.31 1016.55 1016.83 1017.15 1017.35 1017.55 1017.79 1018.07 1018.31 1018.51 1018.59 1018.75 1018.83 1018.95 1019.15 1019.39 1019.59 1019.71 1019.83 1020.03 1020.15 1020.19 1020.47 1020.55 1020.67 1020.83 1021.03 1021.07 1021.23 1021.31 1021.43 1021.55 1021.67 1021.75 1021.87 1021.99 1022.07 1022.23
1012.31 1011.63 1010.07 1009.31 1009.31 1009.39 1009.59 1009.79 1010.07 1010.31 1010.59 1010.91 1011.31 1011.71 1012.15 1012.47 1012.55 1012.95 1013.31 1013.79 1014.47 1014.91 1015.35 1015.51 1015.75 1016.07 1016.31 1016.67 1016.95 1017.15 1017.39 1017.55 1017.63 1017.83 1017.99 1018.07 1018.39 1018.51 1018.83 1019.07 1019.27 1019.31 1019.63 1019.75 1019.75 1019.91 1020.03 1020.23 1020.47 1020.63 1020.75 1020.91 1021.03 1021.03 1021.15 1021.27 1021.31 1021.47 1021.63 1021.79 1021.91 1021.91 1022.03
1012.55 1011.75 1010.99 1009.79 1009.35 1009.39 1009.51 1009.67 1009.83 1009.99 1010.23 1010.39 1010.83 1011.27 1011.59 1011.91 1012.31 1012.67 1013.07 1013.27 1013.59 1014.19 1014.47 1014.79 1015.11 1015.47 1015.79 1016.03 1016.39 1016.63 1016.87 1017.11 1017.35 1017.47 1017.63 1017.75 1017.95 1018.23 1018.63 1018.83 1018.99 1019.19 1019.27 1019.39 1019.59 1019.87 1020.07 1020.23 1020.35 1020.51 1020.67 1020.79 1020.91 1020.99 1021.15 1021.15 1021.31 1021.39 1021.55 1021.67 1021.87 1021.83 1021.91
1013.03 1012.35 1011.47 1010.43 1009.27 1009.11 1009.23 1009.43 1009.63 1009.91 1010.23 1010.51 1010.75 1011.11 1011.35 1011.67 1012.03 1012.47 1012.67 1013.11 1013.39 1013.63 1013.95 1014.31 1014.67 1014.99 1015.43 1015.55 1015.87 1016.19 1016.43 1016.67 1016.91 1017.15 1017.39 1017.55 1017.79 1018.07 1018.31 1018.47 1018.63 1018.87 1019.11 1019.23 1019.27 1019.51 1019.75 1019.95 1020.07 1020.23 1020.43 1020.47 1020.59 1020.71 1020.83 1021.03 1021.11 1021.19 1021.39 1021.55 1021.67 1021.67 1021.71
1013.31 1012.55 1011.63 1010.27 1009.35 1008.95 1009.15 1009.35 1009.51 1009.67 1009.83 1009.95 1010.19 1010.55 1011.03 1011.39 1011.75 1011.95 1012.31 1012.75 1013.03 1013.55 1013.79 1014.11 1014.31 1014.63 1014.99 1015.19 1015.55 1015.87 1016.23 1016.39 1016.67 1016.91 1017.03 1017.31 1017.47 1017.79 1017.91 1018.03 1018.27 1018.47 1018.59 1018.83 1019.19 1019.23 1019.55 1019.75 1019.87 1019.95 1020.11 1020.23 1020.35 1020.47 1020.67 1020.91 1021.03 1021.03 1021.19 1021.47 1021.63 1021.59 1021.63
1013.35 1012.79 1011.75 1010.47 1009.11 1008.87 1008.95 1009.03 1009.23 1009.27 1009.39 1009.71 1010.15 1010.51 1010.99 1011.19 1011.55 1011.95 1012.27 1012.35 1012.67 1013.03 1013.35 1013.63 1013.99 1014.27 1014.59 1014.91 1015.15 1015.51 1015.75 1016.03 1016.19 1016.47 1016.75 1017.07 1017.23 1017.51 1017.63 1017.75 1017.91 1018.07 1018.39 1018.75 1018.83 1018.95 1019.19 1019.39 1019.47 1019.63 1019.79 1019.99 1020.15 1020.31 1020.39 1020.59 1020.79 1020.83 1020.95 1021.27 1021.47 1021.55 1021.39
1013.47 1012.95 1012.43 1011.47 1010.71 1009.47 1008.75 1009.11 1009.15 1009.15 1009.43 1009.71 1009.91 1010.19 1010.51 1010.91 1011.27 1011.59 1011.91 1012.19 1012.39 1012.71 1012.95 1013.03 1013.35 1013.63 1014.07 1014.47 1014.87 1015.19 1015.35 1015.63 1015.95 1016.19 1016.51 1016.79 1016.91 1017.11 1017.19 1017.31 1017.47 1017.63 1018.07 1018.31 1018.43 1018.55 1018.79 1018.99 1019.11 1019.35 1019.55 1019.75 1019.87 1020.07 1020.19 1020.35 1020.47 1020.51 1020.71 1020.95 1021.19 1021.39 1021.35
1013.99 1013.59 1012.91 1012.23 1011.51 1011.19 1010.87 1009.67 1009.11 1009.35 1009.75 1009.87 1010.03 1010.23 1010.31 1010.51 1010.87 1011.23 1011.55 1011.79 1012.07 1012.47 1012.59 1012.79 1012.99 1013.35 1013.79 1014.15 1014.47 1014.71 1015.07 1015.39 1015.51 1015.79 1016.11 1016.43 1016.47 1016.67 1016.71 1016.79 1017.03 1017.23 1017.59 1017.79 1017.95 1018.31 1018.39 1018.55 1018.79 1019.03 1019.35 1019.55 1019.71 1019.79 1019.87 1020.03 1020.11 1020.23 1020.35 1020.63 1020.79 1021.03 1021.19
1014.47 1014.07 1013.67 1013.15 1012.83 1012.63 1011.99 1011.83 1011.87 1011.23 1010.15 1009.75 1009.91 1009.99 1010.27 1010.47 1010.67 1010.95 1011.19 1011.39 1011.71 1011.95 1012.11 1012.43 1012.63 1013.03 1013.39 1013.75 1014.19 1014.51 1014.79 1015.03 1015.23 1015.55 1015.75 1015.91 1015.99 1016.19 1016.31 1016.51 1016.67 1016.91 1017.23 1017.47 1017.71 1017.79 1018.03 1018.35 1018.43 1018.79 1019.03 1019.23 1019.31 1019.43 1019.55 1019.63 1019.75 1019.95 1020.03 1020.11 1020.19 1020.47 1020.67
1015.19 1014.83 1014.63 1014.19 1013.83 1013.39 1013.39 1013.31 1012.75 1012.27 1011.95 1010.99 1010.03 1009.95 1010.23 1010.35 1010.43 1010.55 1010.79 1010.95 1010.99 1011.43 1011.75 1011.99 1012.19 1012.59 1013.03 1013.39 1013.87 1014.23 1014.43 1014.63 1014.83 1015.07 1015.27 1015.47 1015.63 1015.79 1015.99 1016.15 1016.39 1016.59 1016.79 1017.03 1017.43 1017.55 1017.67 1017.95 1018.15 1018.35 1018.63 1018.67 1018.75 1018.83 1018.99 1019.11 1019.31 1019.51 1019.63 1019.71 1019.79 1020.03 1020.19
1016.15 1015.83 1015.43 1015.23 1014.95 1014.55 1014.03 1013.75 1013.59 1013.27 1012.75 1012.03 1011.47 1010.75 1010.11 1010.19 1010.35 1010.39 1010.67 1010.91 1010.91 1011.03 1011.35 1011.59 1011.91 1012.27 1012.71 1013.03 1013.43 1013.83 1014.07 1014.23 1014.39 1014.51 1014.79 1015.03 1015.19 1015.35 1015.59 1015.79 1015.95 1016.19 1016.43 1016.59 1016.95 1017.27 1017.47 1017.55 1017.79 1017.87 1018.07 1018.23 1018.31 1018.43 1018.55 1018.71 1018.83 1019.07 1019.23 1019.39 1019.51 1019.67 1019.91
1016.47 1016.03 1015.91 1015.67 1015.31 1015.27 1015.23 1014.83 1014.35 1013.95 1013.47 1012.99 1012.43 1011.87 1011.31 1010.67 1010.31 1010.27 1010.47 1010.67 1010.71 1010.87 1011.19 1011.43 1011.79 1012.19 1012.51 1012.79 1013.19 1013.51 1013.63 1013.67 1013.79 1014.11 1014.35 1014.51 1014.79 1015.03 1015.19 1015.35 1015.59 1015.79 1015.95 1016.23 1016.59 1016.83 1016.99 1017.19 1017.39 1017.47 1017.59 1017.79 1017.95 1018.03 1018.11 1018.35 1018.51 1018.67 1018.83 1018.99 1019.15 1019.35 1019.51
1016.95 1017.07 1016.91 1016.59 1016.39 1016.15 1015.91 1015.55 1015.27 1014.75 1014.23 1013.71 1013.15 1012.83 1012.31 1011.91 1011.59 1011.19 1010.63 1010.39 1010.43 1010.55 1010.83 1011.03 1011.51 1011.95 1012.31 1012.67 1013.03 1013.15 1013.15 1013.35 1013.55 1013.79 1014.11 1014.35 1014.63 1014.87 1015.07 1015.15 1015.35 1015.51 1015.75 1015.95 1016.15 1016.27 1016.43 1016.59 1016.79 1017.11 1017.31 1017.35 1017.55 1017.71 1017.79 1017.99 1018.15 1018.15 1018.31 1018.63 1018.83 1018.87 1019.07
1017.31 1017.39 1017.51 1017.39 1017.19 1016.87 1016.47 1016.19 1015.79 1015.47 1014.95 1014.31 1013.91 1013.51 1013.07 1012.75 1012.39 1011.95 1011.63 1011.07 1010.59 1010.67 1010.55 1010.83 1011.23 1011.63 1011.95 1012.31 1012.51 1012.63 1012.87 1013.15 1013.39 1013.59 1013.79 1014.19 1014.43 1014.59 1014.79 1014.95 1015.11 1015.27 1015.51 1015.71 1015.87 1016.07 1016.23 1016.39 1016.55 1016.71 1016.95 1017.19 1017.27 1017.35 1017.47 1017.59 1017.51 1017.59 1017.83 1017.99 1018.19 1018.43 1018.55
1017.91 1017.83 1017.71 1017.71 1017.59 1017.23 1016.95 1016.55 1016.15 1015.83 1015.43 1014.99 1014.51 1014.11 1013.71 1013.35 1012.91 1012.39 1011.87 1011.63 1011.11 1010.75 1010.55 1010.67 1011.11 1011.35 1011.59 1011.87 1011.91 1012.19 1012.51 1012.91 1013.23 1013.43 1013.75 1013.79 1013.95 1014.23 1014.55 1014.75 1014.83 1015.07 1015.27 1015.43 1015.63 1015.83 1016.07 1016.27 1016.51 1016.55 1016.55 1016.75 1016.95 1017.11 1017.11 1017.07 1016.95 1017.15 1017.51 1017.79 1017.95 1018.07 1018.27
1018.31 1018.19 1018.07 1017.99 1017.83 1017.63 1017.39 1017.03 1016.71 1016.27 1015.95 1015.63 1015.15 1014.59 1014.15 1013.75 1013.27 1012.79 1012.39 1011.95 1011.75 1011.35 1010.67 1010.51 1010.79 1011.03 1011.31 1011.39 1011.67 1011.95 1012.31 1012.51 1012.83 1013.19 1013.35 1013.51 1013.79 1013.95 1014.11 1014.35 1014.67 1014.91 1015.03 1015.19 1015.43 1015.59 1015.71 1016.03 1016.15 1016.23 1016.27 1016.35 1016.47 1016.59 1016.59 1016.59 1016.47 1016.79 1017.15 1017.43 1017.67 1017.87 1017.91
1018.51 1018.39 1018.39 1018.27 1018.07 1018.03 1017.87 1017.51 1017.07 1016.71 1016.31 1015.91 1015.55 1015.19 1014.71 1014.15 1013.75 1013.39 1012.95 1012.47 1012.03 1011.47 1011.27 1010.99 1010.59 1010.83 1011.11 1011.23 1011.47 1011.75 1011.95 1012.23 1012.63 1012.87 1013.07 1013.23 1013.31 1013.51 1013.79 1014.15 1014.43 1014.59 1014.75 1014.91 1014.83 1015.11 1015.55 1015.63 1015.71 1015.87 1015.87 1015.99 1016.19 1016.19 1016.07 1016.07 1015.99 1016.43 1016.75 1017.03 1017.35 1017.63 1017.79
1018.55 1018.51 1018.43 1018.35 1018.23 1018.11 1017.91 1017.55 1017.19 1016.79 1016.43 1016.07 1015.71 1015.35 1014.91 1014.43 1014.15 1013.67 1012.99 1012.59 1012.11 1011.91 1011.71 1011.59 1011.27 1010.83 1011.03 1011.23 1011.39 1011.55 1011.75 1012.07 1012.39 1012.67 1012.79 1012.87 1013.11 1013.43 1013.79 1014.07 1014.23 1014.07 1014.03 1014.23 1014.55 1014.95 1015.07 1015.11 1015.35 1015.43 1015.59 1015.67 1015.75 1015.79 1015.63 1015.59 1015.51 1015.95 1016.31 1016.67 1016.95 1017.23 1017.63
1018.75 1018.55 1018.47 1018.35 1018.27 1018.03 1017.87 1017.63 1017.35 1016.95 1016.47 1015.99 1015.67 1015.35 1014.95 1014.55 1014.19 1013.83 1013.27 1012.67 1012.47 1012.11 1011.95 1011.79 1011.67 1011.63 1011.43 1011.43 1011.51 1011.71 1012.03 1012.39 1012.59 1012.75 1012.83 1012.91 1013.11 1013.39 1013.59 1013.75 1013.83 1013.95 1013.99 1014.07 1014.27 1014.51 1014.67 1014.75 1014.99 1015.03 1015.11 1015.19 1015.23 1015.35 1015.39 1015.07 1015.07 1015.55 1015.87 1016.23 1016.55 1016.83 1017.27
1018.79 1018.59 1018.47 1018.31 1018.19 1018.07 1017.83 1017.59 1017.39 1017.07 1016.71 1016.11 1015.71 1015.39 1015.11 1014.83 1014.31 1013.99 1013.59 1012.95 1012.67 1012.47 1012.11 1012.11 1012.23 1012.19 1012.03 1012.03 1011.99 1012.11 1012.19 1012.23 1012.31 1012.43 1012.79 1013.23 1013.51 1013.67 1013.71 1013.63 1013.71 1013.87 1013.79 1013.83 1013.83 1013.87 1013.99 1014.23 1014.35 1014.55 1014.63 1014.59 1014.75 1014.99 1015.03 1014.51 1014.63 1015.07 1015.43 1015.75 1016.11 1016.55 1017.07
1018.83 1018.63 1018.43 1018.19 1018.03 1017.87 1017.63 1017.39 1017.31 1016.95 1016.55 1016.23 1015.91 1015.63 1015.27 1014.87 1014.43 1014.11 1013.71 1013.39 1012.99 1012.63 1012.43 1012.51 1012.59 1012.67 1012.59 1012.59 1012.27 1012.15 1012.19 1012.35 1012.51 1012.47 1012.39 1012.59 1013.31 1013.87 1013.95 1013.63 1013.55 1013.55 1013.59 1013.99 1013.87 1013.87 1013.91 1013.87 1013.87 1013.87 1013.99 1014.19 1014.39 1014.55 1014.43 1014.15 1014.07 1014.51 1014.87 1015.27 1015.67 1016.47 1016.55
1018.63 1018.47 1018.39 1018.23 1017.91 1017.67 1017.43 1017.27 1017.11 1016.83 1016.59 1016.27 1015.99 1015.71 1015.31 1014.87 1014.55 1014.19 1013.95 1013.63 1013.23 1013.07 1013.11 1013.07 1013.07 1012.91 1012.87 1012.67 1012.39 1012.19 1012.03 1012.03 1012.27 1012.67 1012.87 1012.95 1013.03 1013.03 1013.23 1013.71 1013.63 1013.55 1013.43 1013.75 1013.79 1013.75 1013.43 1013.31 1013.43 1013.39 1013.39 1013.63 1013.79 1013.75 1013.95 1013.71 1013.51 1013.99 1014.39 1014.79 1015.35 1015.71 1015.83
1018.59 1018.47 1018.31 1018.15 1017.95 1017.83 1017.51 1017.31 1017.19 1016.95 1016.55 1016.19 1016.11 1015.75 1015.35 1014.95 1014.63 1014.43 1014.07 1013.79 1013.59 1013.47 1013.55 1013.63 1013.43 1013.15 1013.03 1012.87 1012.55 1012.19 1012.07 1011.95 1011.95 1012.11 1012.47 1012.79 1012.95 1012.99 1013.03 1013.27 1013.71 1013.59 1013.63 1013.59 1013.51 1013.39 1013.15 1013.15 1013.15 1013.07 1012.95 1012.87 1012.95 1013.03 1013.35 1013.15 1013.03 1013.39 1013.87 1014.35 1014.87 1015.31 1015.27
1018.51 1018.35 1018.23 1017.99 1017.71 1017.71 1017.55 1017.23 1017.03 1016.87 1016.63 1016.27 1016.15 1015.71 1015.43 1015.15 1014.83 1014.67 1014.43 1014.15 1013.95 1013.95 1013.95 1013.83 1013.59 1013.23 1012.95 1012.75 1012.47 1012.19 1011.99 1011.91 1011.95 1011.83 1011.87 1012.07 1012.23 1012.39 1012.47 1012.31 1012.79 1013.63 1014.19 1014.03 1013.43 1013.31 1013.03 1012.87 1012.75 1012.79 1012.59 1012.31 1012.35 1012.39 1012.51 1012.63 1012.47 1012.63 1013.15 1013.67 1014.27 1014.63 1014.67
1018.35 1018.15 1017.99 1017.83 1017.75 1017.79 1017.39 1017.19 1017.07 1016.95 1016.63 1016.35 1015.99 1015.59 1015.47 1015.31 1015.19 1014.99 1014.79 1014.63 1014.43 1014.39 1014.15 1013.75 1013.43 1013.11 1012.87 1012.71 1012.43 1012.19 1012.11 1012.03 1011.91 1011.83 1011.63 1011.59 1011.71 1011.75 1011.91 1011.99 1012.11 1012.39 1013.03 1013.63 1014.03 1013.99 1013.23 1012.71 1012.39 1012.31 1012.15 1011.87 1011.75 1011.71 1011.63 1011.59 1011.79 1011.87 1012.43 1012.99 1013.55 1013.99 1014.31
1018.19 1017.91 1017.63 1017.59 1017.63 1017.55 1017.43 1017.19 1017.07 1016.83 1016.55 1016.27 1015.91 1015.59 1015.43 1015.35 1015.47 1015.23 1015.03 1014.79 1014.67 1014.47 1013.99 1013.71 1013.43 1013.15 1012.91 1012.87 1012.71 1012.35 1012.07 1011.99 1011.83 1011.59 1011.35 1011.31 1011.51 1011.87 1012.11 1012.03 1011.83 1011.75 1011.91 1012.39 1013.19 1013.75 1013.59 1012.63 1012.39 1012.15 1011.91 1011.59 1011.35 1011.19 1011.11 1010.87 1011.07 1011.19 1011.63 1012.19 1012.75 1013.27 1013.59
1018.71 1018.31 1017.91 1017.55 1017.19 1017.15 1017.23 1017.23 1017.07 1016.75 1016.55 1016.27 1016.07 1015.79 1015.51 1015.39 1015.59 1015.39 1015.11 1014.99 1014.79 1014.31 1013.99 1013.79 1013.55 1013.39 1013.03 1012.79 1012.55 1012.23 1011.91 1011.71 1011.59 1011.43 1011.23 1011.19 1011.19 1011.39 1011.51 1011.39 1011.43 1011.51 1011.59 1011.79 1012.19 1012.95 1013.47 1013.55 1012.87 1012.23 1011.87 1011.59 1011.15 1010.79 1010.59 1010.39 1010.35 1010.67 1010.91 1011.39 1012.03 1012.47 1012.95
1018.87 1018.51 1017.99 1017.55 1017.39 1017.15 1017.07 1017.03 1016.87 1016.79 1016.47 1016.27 1016.11 1015.87 1015.63 1015.43 1015.43 1015.27 1015.11 1015.03 1014.71 1014.43 1014.11 1013.95 1013.71 1013.43 1013.07 1012.67 1012.43 1012.19 1012.03 1011.71 1011.31 1011.19 1011.19 1011.27 1011.19 1011.15 1011.23 1011.15 1011.03 1011.11 1011.27 1011.47 1011.83 1012.15 1012.51 1013.03 1012.71 1011.99 1011.59 1011.43 1011.07 1010.51 1010.07 1009.83 1009.79 1009.87 1010.23 1010.63 1011.27 1011.75 1012.15
1018.87 1018.67 1018.35 1017.91 1017.43 1017.19 1017.11 1016.91 1016.79 1016.59 1016.47 1016.23 1016.11 1015.91 1015.75 1015.51 1015.43 1015.27 1015.11 1014.71 1014.47 1014.51 1014.27 1014.03 1013.87 1013.59 1013.19 1012.75 1012.43 1012.27 1012.07 1011.83 1011.55 1011.27 1011.15 1011.15 1011.15 1011.11 1010.91 1010.95 1010.87 1010.99 1010.87 1011.15 1011.35 1011.47 1011.87 1011.99 1011.51 1011.27 1010.99 1010.83 1010.67 1010.19 1009.71 1009.35 1009.35 1009.23 1009.47 1009.95 1010.43 1010.95 1011.35
1018.67 1018.47 1018.23 1017.95 1017.63 1017.27 1017.07 1016.79 1016.51 1016.39 1016.35 1016.15 1015.99 1015.83 1015.67 1015.51 1015.35 1015.31 1014.99 1014.51 1014.43 1014.35 1014.27 1014.11 1013.95 1013.67 1013.35 1013.03 1012.59 1012.23 1011.95 1011.87 1011.55 1011.27 1011.07 1011.03 1010.79 1010.59 1010.51 1010.63 1010.79 1010.79 1010.51 1010.47 1010.67 1010.95 1011.39 1011.31 1010.91 1010.59 1010.35 1010.19 1009.79 1009.51 1009.19 1008.99 1008.95 1008.91 1008.75 1009.19 1009.67 1010.19 1010.59
1018.59 1018.43 1018.27 1018.03 1017.75 1017.59 1017.19 1016.79 1016.43 1016.19 1016.15 1016.11 1015.87 1015.75 1015.59 1015.43 1015.23 1015.03 1014.75 1014.63 1014.35 1014.19 1014.15 1014.07 1013.91 1013.79 1013.39 1013.15 1012.87 1012.39 1012.07 1011.91 1011.67 1011.35 1010.95 1010.75 1010.51 1010.23 1010.15 1010.15 1010.23 1010.27 1010.23 1010.23 1010.31 1010.47 1010.55 1010.55 1010.47 1010.23 1009.87 1009.59 1009.07 1008.75 1008.67 1008.63 1008.47 1008.35 1008.35 1008.27 1008.87 1009.39 1009.95
1018.47 1018.27 1018.03 1017.91 1017.63 1017.47 1017.27 1017.03 1016.63 1016.11 1015.87 1015.79 1015.67 1015.55 1015.43 1015.27 1015.11 1014.83 1014.67 1014.51 1014.39 1014.23 1014.19 1014.11 1013.95 1013.83 1013.51 1013.15 1012.75 1012.43 1012.15 1011.99 1011.75 1011.71 1011.35 1010.83 1010.43 1010.15 1009.99 1009.87 1009.83 1009.95 1009.99 1010.07 1010.11 1010.23 1010.11 1010.03 1009.79 1009.59 1009.23 1008.91 1008.55 1008.35 1008.31 1008.27 1008.07 1007.87 1007.95 1007.91 1008.11 1008.51 1008.87
1018.27 1018.07 1017.83 1017.67 1017.47 1017.31 1017.07 1016.87 1016.59 1016.19 1015.75 1015.39 1015.35 1015.27 1015.07 1014.99 1014.87 1014.71 1014.67 1014.51 1014.35 1014.27 1014.23 1014.07 1013.75 1013.59 1013.43 1013.11 1012.67 1012.31 1012.07 1011.99 1011.83 1011.59 1011.35 1010.91 1010.35 1009.79 1009.55 1009.67 1009.67 1009.63 1009.47 1009.19 1009.23 1009.27 1009.23 1009.15 1008.83 1008.47 1008.03 1007.91 1007.95 1008.03 1008.03 1007.75 1007.59 1007.03 1006.87 1007.15 1007.27 1007.59 1007.95
1017.99 1017.75 1017.51 1017.35 1017.19 1016.95 1016.71 1016.47 1016.35 1016.07 1015.63 1015.07 1014.95 1014.91 1014.75 1014.55 1014.47 1014.43 1014.43 1014.39 1014.31 1014.23 1014.27 1014.11 1013.79 1013.47 1013.11 1012.67 1012.39 1012.15 1011.99 1011.87 1011.51 1011.31 1011.23 1011.03 1010.59 1010.03 1009.47 1008.99 1009.15 1009.27 1009.43 1009.07 1008.67 1008.71 1008.59 1008.63 1008.43 1007.71 1007.51 1007.51 1007.03 1006.79 1007.19 1006.99 1006.31 1006.27 1006.75 1006.95 1007.19 1007.35 1007.47
1017.75 1017.51 1017.19 1017.03 1016.91 1016.63 1016.51 1016.27 1015.99 1015.75 1015.35 1014.87 1014.63 1014.55 1014.35 1014.19 1014.07 1014.11 1014.19 1014.19 1014.15 1014.15 1014.11 1014.03 1013.83 1013.47 1013.07 1012.83 1012.59 1012.39 1012.23 1011.91 1011.35 1010.91 1010.87 1010.71 1010.43 1010.03 1009.79 1009.35 1008.67 1008.59 1008.67 1008.51 1008.43 1008.31 1008.27 1008.47 1008.11 1007.79 1007.63 1007.51 1007.07 1006.23 1005.99 1005.99 1006.19 1006.59 1006.71 1006.83 1006.99 1007.15 1007.35
1017.27 1017.11 1016.87 1016.59 1016.43 1016.19 1016.11 1015.95 1015.67 1015.43 1015.03 1014.51 1014.27 1014.15 1013.99 1013.83 1013.67 1013.67 1013.75 1013.91 1013.99 1013.95 1013.95 1013.91 1013.87 1013.59 1013.19 1012.87 1012.67 1012.43 1012.15 1011.63 1011.07 1010.71 1010.75 1010.55 1010.27 1010.07 1009.87 1009.67 1009.31 1008.39 1007.75 1007.87 1007.95 1007.95 1007.79 1007.67 1007.63 1007.55 1007.55 1007.31 1006.99 1006.67 1006.07 1005.75 1006.03 1006.43 1006.55 1006.63 1006.75 1006.87 1007.07
Wind_Speed
17 17 17 17 17 18 18 18 18 17 16 16 16 18 18 16 15 14 14 15 16 15 15 14 14 13 14 13 13 11 11 10 9 10 9 9 8 8 8 7 7 6 6 6 6 6 5 6 6 6 6 6 6 5 5 4 4 4 4 4 3 3 2
13 14 16 16 17 18 19 18 17 16 16 16 16 18 17 18 15 15 14 15 17 17 16 16 15 14 14 13 12 12 12 12 10 8 8 7 6 7 8 8 7 7 6 5 5 5 4 5 6 6 6 6 7 6 5 5 5 4 4 4 4 3 3
7 12 14 15 17 17 18 18 17 16 17 16 17 17 18 17 16 17 15 16 16 16 15 16 16 15 14 13 12 13 13 12 11 11 12 11 12 12 9 8 7 7 7 6 5 5 5 5 6 6 6 6 7 6 6 5 5 5 4 4 4 4 3
11 12 11 17 17 18 19 19 19 18 17 18 18 19 19 17 17 16 16 17 18 17 17 16 16 15 14 13 14 13 13 13 13 13 13 12 11 10 8 8 7 7 6 7 6 5 5 5 6 6 7 6 6 6 6 6 5 5 5 5 4 4 4
14 13 12 12 17 16 16 17 17 18 19 19 18 17 17 17 17 16 16 17 19 20 19 19 16 16 13 14 12 12 14 15 13 12 12 11 10 9 9 10 9 9 8 7 7 6 6 6 6 6 6 6 7 6 7 6 6 5 5 5 5 5 5
13 13 11 11 13 15 15 16 17 17 17 17 18 17 17 18 17 19 19 18 17 17 17 17 18 16 16 16 14 13 13 13 12 11 11 10 10 10 11 11 10 10 9 9 7 7 8 7 7 7 8 7 8 8 7 7 7 7 6 6 6 6 5
13 13 13 8 11 13 13 14 15 16 16 16 16 15 15 16 19 18 17 18 18 18 19 18 17 16 14 14 14 15 15 15 13 14 12 12 12 12 11 10 10 10 9 7 8 7 8 8 8 8 8 8 7 8 7 7 7 6 6 6 6 6 6
16 15 15 14 6 11 11 13 14 15 15 13 13 15 17 16 15 16 17 17 18 17 17 18 17 15 14 14 13 15 15 15 14 13 12 14 13 13 11 11 11 10 9 10 9 9 10 10 9 8 8 8 8 8 8 7 7 7 7 7 7 7 5
17 16 17 15 18 6 10 11 11 14 16 15 16 15 17 16 16 17 17 17 17 17 18 18 17 15 14 14 14 15 15 14 14 13 15 15 14 14 14 13 12 11 11 11 10 10 10 10 10 9 9 8 8 8 8 8 8 8 8 7 7 7 7
17 18 18 19 16 15 16 6 9 12 12 12 12 12 16 15 15 15 15 16 16 18 18 17 16 15 14 15 15 16 15 15 14 16 15 16 14 15 15 13 12 11 12 12 11 10 10 10 10 9 9 9 9 9 8 8 8 8 8 8 8 8 8
16 16 18 20 18 18 17 17 17 10 4 10 11 13 12 13 15 16 16 16 17 16 17 16 15 15 15 16 17 16 16 16 15 15 16 16 14 16 15 14 12 11 12 12 12 12 10 10 10 10 10 10 10 10 10 10 9 9 9 9 8 9 8
15 15 17 18 19 19 17 15 14 14 14 11 5 13 11 12 14 15 15 17 17 17 16 17 15 15 15 15 16 16 17 16 16 17 17 17 15 16 15 14 13 12 11 12 12 12 11 11 10 10 11 11 11 11 10 9 9 10 10 10 9 9 9
13 14 15 17 17 15 16 18 17 15 16 13 13 9 8 13 13 15 14 15 16 15 15 15 15 15 15 16 17 15 16 16 16 15 16 15 15 13 13 14 14 14 13 12 13 12 12 12 12 11 11 12 11 11 11 10 10 9 10 10 9 9 9
16 18 18 17 18 19 18 16 16 17 15 16 14 12 12 4 9 13 13 15 15 15 14 12 14 14 15 15 15 15 16 16 16 15 14 13 13 13 14 14 13 13 12 11 13 13 14 13 13 12 11 11 11 11 10 9 9 9 9 9 10 9 10
16 15 17 18 17 17 17 16 16 16 15 14 15 15 13 11 11 7 6 12 13 15 15 14 14 14 15 14 15 14 14 13 13 12 13 13 12 12 13 13 12 12 12 11 12 11 13 13 13 12 12 12 11 11 10 10 10 9 9 10 11 10 11
16 15 15 15 16 16 14 15 14 14 15 15 16 16 14 12 11 9 9 5 11 12 14 13 14 15 15 16 15 14 13 12 11 12 13 12 12 12 13 13 13 13 13 12 12 11 11 11 12 12 13 12 12 11 10 10 9 10 14 12 10 11 10
15 15 15 13 14 16 14 15 14 13 14 15 16 16 13 13 11 10 9 9 7 9 12 12 13 14 16 16 16 14 13 12 12 11 12 12 12 12 12 14 13 12 12 12 12 12 11 11 12 13 12 13 13 13 11 11 10 15 15 16 16 11 10
14 14 14 14 13 13 15 14 15 15 14 14 14 15 15 13 12 11 10 9 8 9 6 13 14 15 15 16 13 12 13 13 13 13 13 12 13 13 13 13 13 12 12 12 13 11 11 12 13 13 13 12 13 14 13 12 13 15 16 17 18 15 12
12 12 12 13 13 13 13 13 13 13 13 11 12 13 14 12 12 12 11 10 9 8 7 7 12 14 14 14 13 12 12 12 13 13 13 13 14 13 12 12 13 14 13 14 14 12 12 13 14 14 14 13 13 14 14 13 15 16 17 17 18 18 15
11 11 11 11 11 11 12 11 11 12 12 12 11 11 11 10 11 11 10 9 8 8 8 6 7 9 11 11 11 11 11 12 12 13 13 13 12 11 11 12 13 15 14 13 12 12 13 15 15 13 13 13 14 13 14 15 14 17 18 18 18 18 15
11 12 12 11 12 12 12 12 12 12 13 13 13 11 11 11 10 10 9 9 7 7 7 8 7 8 3 6 5 3 4 5 9 10 11 11 11 11 12 13 13 14 13 12 13 13 13 14 14 13 13 14 14 13 14 14 16 16 19 19 19 19 15
11 11 12 11 12 12 12 12 13 13 12 12 12 12 10 11 11 11 10 9 8 7 7 7 7 6 7 6 4 2 2 4 7 7 8 9 9 11 12 13 12 12 12 11 12 11 12 12 13 13 14 15 15 14 15 15 16 16 18 20 19 18 10
11 11 11 11 11 11 10 10 12 12 11 10 10 12 12 11 11 10 9 8 9 9 7 5 3 4 5 4 4 2 1 3 4 5 7 8 9 12 14 13 12 12 10 11 12 12 12 13 14 13 14 15 14 15 15 15 16 18 19 19 19 14 10
9 9 10 11 11 10 11 10 10 11 11 11 11 11 11 12 11 10 9 9 9 8 8 6 6 5 5 3 3 4 4 4 5 6 6 5 8 10 10 11 12 11 9 11 12 13 14 13 12 13 13 15 15 15 16 16 15 18 18 19 19 16 12
10 10 10 10 11 12 13 11 10 11 11 11 12 12 11 12 12 10 10 10 10 9 7 6 8 8 7 6 6 5 4 5 5 6 8 9 8 8 9 9 11 9 7 10 11 13 12 11 12 13 12 14 16 15 17 16 15 17 19 20 19 17 11
13 12 11 10 9 11 11 11 11 12 13 13 12 11 12 10 11 11 9 10 9 9 9 8 7 7 8 7 6 6 5 4 4 6 10 11 9 10 11 10 9 9 8 13 11 12 12 12 13 14 13 13 15 14 16 17 16 14 20 20 20 21 13
13 13 14 12 10 9 9 10 10 12 13 11 11 11 10 10 10 10 10 8 8 9 10 10 8 7 8 7 8 7 5 4 4 3 4 9 9 9 10 9 9 10 11 11 9 13 15 15 14 14 14 14 13 14 16 15 16 15 19 20 21 22 19
16 16 15 13 11 9 9 10 11 11 11 12 12 12 10 10 10 9 9 9 9 9 10 10 9 9 8 8 8 9 6 4 4 5 5 6 6 6 7 7 9 10 11 9 10 13 16 15 13 13 13 12 14 14 15 15 17 15 16 20 22 22 24
15 16 16 17 16 13 11 10 11 11 11 10 12 11 10 10 9 8 8 9 10 10 10 11 10 10 8 7 8 8 7 4 6 6 5 5 5 5 7 8 7 6 7 8 9 12 13 12 14 14 14 14 14 13 14 14 13 19 15 18 21 22 23
11 14 16 16 15 15 15 13 10 10 11 10 9 10 10 10 9 9 9 9 9 9 10 10 10 10 9 7 7 9 9 9 8 7 6 6 6 7 7 7 7 8 9 8 9 12 14 13 16 16 16 17 16 16 15 14 13 14 20 16 21 21 23
12 12 13 15 17 16 15 14 15 13 11 9 9 9 9 9 9 11 11 9 8 9 10 10 10 10 9 8 8 8 9 9 8 9 9 8 7 6 6 7 7 6 6 8 9 12 14 15 16 16 16 15 16 16 15 15 14 12 14 21 19 22 22
12 11 12 13 14 16 16 16 16 14 12 10 8 9 8 8 8 9 10 10 9 9 9 9 10 10 9 9 8 9 9 10 10 10 10 10 9 8 6 7 6 6 6 6 8 10 13 15 16 16 16 15 16 16 15 14 14 14 11 12 17 17 22
13 12 12 13 13 13 15 16 16 16 14 13 9 7 8 9 8 8 7 8 9 9 9 9 9 10 10 9 9 8 9 10 9 10 11 10 7 7 7 6 6 6 7 8 11 12 14 14 16 16 16 17 16 14 13 13 15 14 13 10 10 11 12
13 13 12 12 13 13 13 14 16 18 17 13 10 7 8 8 8 8 8 7 8 9 10 9 8 9 10 11 9 7 6 8 11 11 10 10 9 7 6 6 7 8 9 10 12 14 17 17 17 16 17 15 14 12 12 13 13 13 13 12 10 10 11
13 15 14 14 13 13 13 12 14 17 19 17 12 9 8 9 8 7 7 6 6 7 9 10 10 9 10 10 9 7 7 7 8 8 9 9 9 8 7 7 7 8 9 12 13 14 15 14 14 14 14 13 12 12 11 12 13 14 12 12 13 13 12
15 16 16 14 13 13 14 15 14 16 18 17 13 11 10 9 8 6 6 5 4 5 7 9 9 10 9 9 8 7 7 7 7 8 8 9 9 9 9 9 12 11 10 11 11 16 19 16 14 13 11 12 13 11 12 13 12 6 10 15 15 15 16
17 17 16 16 16 16 15 15 15 16 18 17 14 12 11 10 8 6 7 6 5 4 6 8 8 8 8 8 8 8 8 9 8 7 8 8 9 9 9 10 9 15 20 19 16 16 17 17 22 22 20 15 15 14 16 17 14 4 10 14 16 17 17
18 18 18 17 17 18 17 17 17 16 17 16 15 13 11 10 10 7 7 6 4 5 6 6 7 8 8 8 9 9 9 8 8 7 9 10 9 8 9 9 11 11 11 16 17 18 21 22 22 22 21 23 21 17 15 15 14 15 13 14 16 18 18
Wind_Direction
213 210 207 204 202 201 202 200 192 188 187 187 187 191 192 190 187 181 182 181 186 186 185 185 188 191 194 195 196 193 195 193 191 195 196 201 202 199 198 205 203 202 204 208 206 204 201 193 190 194 196 203 214 212 209 205 208 206 206 214 223 235 239
217 215 212 208 205 202 201 198 194 190 188 188 187 188 191 191 187 184 183 182 185 185 183 186 188 192 194 196 194 192 193 196 195 193 195 194 192 199 202 200 200 198 199 209 203 207 202 195 197 196 200 201 214 213 211 209 211 213 216 206 224 229 230
311 230 216 214 210 208 204 200 195 193 189 188 187 188 190 189 186 184 183 184 186 189 185 187 189 192 194 195 193 195 195 196 196 197 200 202 200 206 203 202 202 205 203 200 205 206 202 202 197 202 202 206 214 207 211 212 210 215 218 212 227 232 229
339 321 262 218 211 206 203 200 198 197 194 192 190 189 190 188 184 183 185 185 186 187 187 189 190 193 194 193 196 196 197 198 199 202 205 204 197 197 194 198 201 205 197 203 204 203 200 196 198 203 203 209 208 211 213 219 219 215 215 212 228 231 236
339 327 312 252 217 209 205 202 202 199 198 196 192 188 190 187 188 190 190 191 191 190 190 189 191 193 194 194 197 198 199 199 200 203 204 203 194 191 198 206 203 207 207 198 192 192 194 197 204 201 203 209 212 209 212 214 220 214 216 213 227 227 237
343 335 316 280 233 214 207 204 204 200 200 197 193 188 191 190 191 194 193 192 195 194 192 191 192 190 192 194 197 199 198 199 198 198 201 198 191 197 203 204 205 205 204 202 197 199 197 205 206 203 204 208 213 215 216 215 216 214 213 214 225 231 239
353 346 338 293 243 218 206 204 202 203 202 202 198 189 187 192 195 196 195 195 195 193 193 194 195 192 193 192 197 196 195 197 196 200 201 205 203 204 204 202 203 205 209 195 201 196 199 203 205 203 205 211 210 214 210 212 214 211 213 214 219 224 234
5 1 358 360 252 214 208 198 198 201 198 194 193 188 186 192 194 196 196 196 196 197 196 196 194 194 192 193 196 198 199 201 200 200 201 204 206 208 207 205 201 200 192 200 202 199 205 205 207 206 205 209 209 209 209 206 208 214 214 217 218 223 222
11 12 12 14 19 345 217 197 200 198 195 193 191 187 187 188 191 195 197 198 198 198 200 199 198 194 190 191 192 197 199 199 199 196 199 203 207 210 212 208 206 196 197 206 207 201 206 207 209 203 202 210 209 204 208 205 208 210 213 215 217 221 230
14 16 17 21 23 25 15 349 204 196 198 195 184 184 189 190 192 192 195 197 198 202 202 200 199 195 192 193 197 198 197 197 200 200 200 205 209 211 212 212 208 199 202 204 206 202 200 205 206 201 201 210 211 209 209 204 205 208 209 211 215 220 221
14 16 20 21 24 25 24 21 14 358 262 197 183 195 190 188 187 191 197 197 200 202 201 200 198 198 197 196 199 200 201 204 202 203 204 207 209 212 212 212 209 203 206 206 208 207 200 197 199 201 202 212 214 212 210 208 205 206 212 211 211 213 218
13 18 20 21 21 22 23 21 15 11 6 357 232 199 191 192 190 193 193 195 198 199 198 199 198 199 197 197 200 202 203 204 204 205 206 207 209 211 211 210 210 207 203 206 208 207 206 199 198 202 205 210 214 212 210 207 205 207 211 213 210 208 213
15 20 21 21 21 19 19 19 16 13 11 8 12 351 219 196 197 200 197 197 199 200 200 197 197 196 197 198 201 202 204 204 204 205 206 206 208 209 209 210 210 210 208 203 207 208 210 207 203 203 208 210 212 214 211 207 207 208 209 213 211 208 210
17 20 17 17 19 16 14 11 10 12 8 11 10 8 14 349 221 205 196 196 196 199 198 197 197 195 196 198 202 203 205 206 205 205 205 206 204 206 209 209 210 211 210 205 205 209 212 212 207 205 209 212 213 215 213 209 208 207 209 210 211 212 214
21 18 12 12 11 11 8 7 6 3 7 7 9 11 9 10 10 353 243 205 199 198 198 194 193 195 195 198 202 205 205 204 205 205 203 202 199 202 206 209 210 208 207 205 208 211 214 214 213 211 210 212 211 213 212 215 215 213 209 209 210 215 218
20 20 15 10 6 4 1 1 0 358 1 7 10 9 7 6 3 354 359 285 213 203 201 193 195 194 200 202 204 203 199 197 199 202 202 199 199 201 204 209 211 210 208 210 210 212 212 214 215 216 214 212 211 210 211 213 216 209 206 207 212 212 218
18 17 14 8 3 360 356 354 351 354 1 5 9 6 7 6 355 356 355 360 333 228 205 198 196 198 200 207 206 202 198 193 194 198 200 201 201 202 205 210 213 213 212 211 208 209 205 205 213 219 221 220 218 215 215 216 218 207 202 207 213 217 217
16 13 10 9 4 356 354 351 350 350 351 355 357 1 6 358 359 358 358 353 347 344 287 218 207 206 205 208 204 198 194 200 202 203 208 205 206 204 203 205 207 209 207 205 207 203 206 211 215 218 219 221 221 221 220 221 218 204 203 206 209 212 221
12 10 8 4 2 358 351 347 347 342 342 343 350 354 351 349 353 358 356 348 351 341 336 308 229 209 207 208 205 199 194 201 202 203 207 207 206 205 202 200 205 209 210 212 212 209 206 212 213 213 214 218 219 221 222 225 213 203 204 206 207 209 215
8 9 6 2 359 354 348 345 344 343 343 342 342 338 338 341 346 343 346 350 350 2 1 350 335 238 210 207 209 203 200 203 205 208 211 209 206 204 204 205 210 215 215 214 208 204 206 211 214 215 213 215 219 221 224 227 216 201 204 206 207 208 206
4 4 360 359 355 352 350 345 338 342 346 348 343 337 337 340 342 332 342 353 2 3 18 23 29 24 305 234 229 227 234 229 228 227 222 218 212 209 208 209 214 215 216 215 209 205 207 213 215 215 213 215 217 221 226 230 221 199 202 206 208 208 203
358 357 357 356 350 346 348 345 342 341 341 339 341 340 340 338 332 338 337 352 8 6 18 10 12 18 30 35 34 53 127 157 201 222 231 240 233 222 218 217 215 214 213 214 216 217 216 213 217 217 217 217 219 223 228 232 216 201 201 204 207 203 203
351 352 350 348 346 340 341 342 338 337 338 340 344 341 337 338 335 336 332 352 6 15 33 23 3 9 355 350 339 342 264 238 240 224 211 200 218 239 238 227 220 219 214 218 220 220 216 217 216 219 221 219 216 219 227 233 216 200 200 201 202 192 208
342 345 348 344 343 339 338 340 338 337 340 343 350 347 339 338 343 341 346 358 4 13 24 16 16 27 21 13 321 306 286 257 236 237 242 229 211 219 234 245 242 225 215 218 220 222 224 220 222 222 222 221 220 218 223 232 221 198 201 199 192 191 202
336 339 339 342 343 344 339 336 336 335 339 351 354 349 348 341 343 350 354 356 2 1 10 8 357 357 351 342 327 315 298 274 252 239 239 235 227 223 229 231 251 253 227 232 227 231 231 227 227 226 223 223 224 218 222 233 230 199 200 197 191 193 208
329 331 332 334 338 344 335 328 332 341 346 351 351 346 350 346 348 351 357 356 352 350 348 351 342 336 331 323 310 305 301 303 299 263 238 228 217 210 218 218 207 226 230 241 241 243 237 229 227 228 227 226 225 225 222 231 236 207 196 194 191 193 202
321 322 324 327 333 333 335 339 336 336 339 345 341 347 348 349 351 351 351 347 350 344 338 335 330 324 325 324 315 297 290 282 265 251 253 241 227 224 227 219 209 194 211 230 234 247 246 235 232 231 232 229 227 228 226 227 229 221 190 193 189 194 197
319 320 319 321 325 324 333 333 332 330 337 341 339 344 345 348 350 348 346 341 343 338 330 327 327 319 319 320 312 299 283 267 264 241 224 227 228 222 227 210 203 201 211 214 220 237 242 238 233 236 236 235 231 230 230 225 219 231 196 192 191 192 196
314 316 319 322 322 328 330 328 327 330 332 333 334 336 337 343 340 339 338 340 334 330 328 326 322 316 313 322 319 310 310 283 252 259 251 222 205 213 215 210 212 204 201 208 220 236 250 257 249 241 241 245 243 240 234 230 222 214 215 193 192 192 197
301 304 310 310 312 318 324 321 320 323 325 326 327 329 331 334 333 335 336 337 335 329 327 325 322 316 317 331 331 323 322 317 303 264 256 259 237 211 219 219 206 204 207 209 215 232 235 231 242 242 243 244 247 248 247 239 232 207 208 204 190 195 198
296 297 300 305 309 314 317 315 316 316 316 320 321 323 323 323 326 327 330 334 332 331 326 325 320 316 318 328 327 321 317 312 311 308 288 257 245 246 232 225 224 218 210 210 223 233 241 238 241 242 241 240 242 245 245 244 236 233 201 202 192 196 200
289 291 291 294 299 308 311 311 309 309 310 315 313 314 317 313 317 320 326 326 327 325 324 320 318 315 317 320 322 321 318 312 311 300 287 279 264 250 242 239 224 227 227 222 229 229 233 243 244 241 238 238 240 241 242 240 246 240 223 188 200 199 202
292 291 292 292 293 300 305 309 307 305 307 306 306 303 311 306 305 309 315 320 320 320 317 313 313 312 313 315 314 320 319 312 307 307 303 293 278 252 241 237 236 235 237 236 238 238 240 241 242 241 240 242 239 236 237 240 244 244 236 210 192 199 199
291 291 287 287 290 291 290 293 298 300 302 301 302 296 301 296 291 299 308 316 318 318 314 308 309 309 307 304 305 305 309 305 298 295 289 288 282 272 252 231 229 234 234 233 234 235 236 238 240 241 241 243 239 236 233 234 236 236 229 222 209 199 193
288 287 289 288 287 287 284 285 288 293 296 294 297 292 291 287 280 278 290 300 312 315 310 305 304 305 300 297 294 300 299 292 291 286 287 286 283 274 260 255 248 239 237 236 239 240 241 240 239 238 241 241 242 237 233 233 232 229 218 219 212 208 210
288 287 286 284 284 282 281 280 280 284 288 290 292 291 287 284 272 269 269 281 288 303 300 301 302 301 300 300 302 303 297 287 288 293 293 291 287 286 281 258 245 251 259 261 247 235 239 242 247 247 249 251 248 242 238 235 235 230 196 209 210 212 212
288 286 285 286 284 280 278 279 279 280 281 283 287 287 285 280 271 265 273 277 276 276 291 296 296 296 294 295 293 293 288 286 286 293 292 288 286 283 281 287 261 233 234 242 250 255 251 240 247 253 254 253 260 254 240 247 258 238 199 202 209 211 213
284 283 284 284 282 282 281 281 280 277 276 281 283 282 282 279 274 258 262 261 259 268 277 280 284 286 287 289 290 293 290 288 291 297 297 294 286 279 285 281 285 288 246 230 237 241 246 247 244 241 237 243 244 252 263 250 234 225 207 207 209 211 212